Home > Time Zones > World Clock > Weather > France > Lens > Past weeks

Flag for France Weather past 2 weeks in Lens, France

Now
46 °F

Light rain. Mostly cloudy.


Feels Like: 39 °F
Forecast: 37 / 49 °F
Wind: 20 mph from West

Location: Lille Airport

Current Time: Apr 2, 2015 at 1:05:41 AM

Latest Report: Apr 2, 2015 at 12:30 AM


Visibility: N/A

Pressure: 30.12 "Hg

Humidity: 82%

Dew point: 41 °F

Location of LensLocation

Historic Weather in Lens — Graph

°F

Lens temperature yesterday

Maximum temperature yesterday: 52 °F (at 3:00 PM)
Minimum temperature yesterday: 37 °F (at 2:00 AM)
Average temperature yesterday: 45 °F

Past Weeks' High & Low Weather Summary

 TemperatureHumidityPressure
High57 °F (Mar 28, 5:00 PM)100% (Mar 18, 8:47 AM)30.42 "Hg (Mar 18, 8:47 AM)
Low30 °F (Mar 23, 3:00 AM)41% (Mar 31, 5:00 PM)29.45 "Hg (Mar 29, 5:30 PM)
Average44 °F82%30.00 "Hg
* Reported Mar 17 11:00 PM — Midnight between Apr 1 and Apr 2, Lens, Weather by CustomWeather, © 2015

Note: Actual official high and low records may vary slightly from our data, if they occured in-between our weather recording intervals... More about our weather records

Advertising

Lens weather history for previous 24 hours

 ConditionsComfort  
Time TempWeatherWind HumidityBarometerVisibility
12:00 AM
Thu, Apr 2
46 °FPartly cloudy.15 mph82%30.12 "HgN/A
11:30 PM
Wed, Apr 1
45 °FPassing clouds.16 mph87%30.12 "HgN/A
11:00 PM46 °FLight rain. Passing clouds.17 mph76%30.15 "HgN/A
10:30 PM46 °FPassing clouds.16 mph76%30.15 "HgN/A
10:00 PM46 °FPassing clouds.17 mph76%30.18 "HgN/A
9:30 PM46 °FClear.20 mph71%30.18 "Hg10 mi
8:54 PM46 °FSunny.18 mph71%30.18 "Hg10 mi
8:30 PM46 °FSunny.17 mph71%30.18 "Hg10 mi
8:00 PM46 °FPartly sunny.21 mph66%30.18 "HgN/A
7:30 PM48 °FBroken clouds.20 mph66%30.18 "HgN/A
7:00 PM48 °FBroken clouds.17 mph62%30.21 "HgN/A
6:30 PM48 °FBroken clouds.21 mph62%30.21 "HgN/A
6:00 PM48 °FBroken clouds.20 mph62%30.21 "HgN/A
5:30 PM50 °FBroken clouds.20 mph58%30.21 "HgN/A
5:00 PM50 °FBroken clouds.20 mph54%30.21 "HgN/A
4:30 PM50 °FPartly sunny.22 mph54%30.21 "HgN/A
4:00 PM52 °FPartly sunny.22 mph47%30.21 "HgN/A
3:30 PM50 °FSunny.21 mph47%30.21 "Hg10 mi
3:00 PM52 °FPartly sunny.18 mph50%30.21 "HgN/A
2:30 PM50 °FPartly sunny.23 mph47%30.21 "HgN/A
2:00 PM50 °FScattered clouds.22 mph47%30.24 "HgN/A
1:30 PM50 °FPartly sunny.21 mph50%30.24 "HgN/A
1:00 PM48 °FPartly sunny.22 mph54%30.24 "HgN/A
12:30 PM46 °FPartly sunny.23 mph57%30.24 "HgN/A
12:00 PM46 °FPartly sunny.21 mph57%30.21 "HgN/A
11:30 AM46 °FPartly sunny.23 mph57%30.21 "HgN/A
11:00 AM45 °FPartly sunny.22 mph61%30.21 "HgN/A
10:00 AM45 °FScattered clouds.20 mph61%30.18 "HgN/A
9:30 AM43 °FScattered clouds.17 mph66%30.18 "HgN/A
9:00 AM41 °FPartly sunny.15 mph70%30.18 "HgN/A
8:30 AM41 °FScattered clouds.15 mph70%30.18 "HgN/A
8:00 AM39 °FPassing clouds.16 mph75%30.15 "HgN/A
7:30 AM39 °FPassing clouds.16 mph75%30.15 "HgN/A
7:00 AM39 °FPassing clouds.16 mph70%30.12 "HgN/A
6:30 AM41 °FPassing clouds.18 mph66%30.12 "HgN/A
6:00 AM41 °FPassing clouds.18 mph70%30.09 "HgN/A
5:30 AM41 °FPassing clouds.18 mph66%30.09 "HgN/A
5:00 AM41 °FPassing clouds.15 mph70%30.09 "HgN/A
4:30 AM41 °FClear.15 mph66%30.09 "HgN/A
4:00 AM41 °FClear.15 mph66%30.07 "HgN/A
3:30 AM41 °FClear.15 mph70%30.07 "HgN/A
3:00 AM41 °FClear.15 mph76%30.07 "HgN/A
2:30 AM39 °FPassing clouds.12 mph87%30.04 "HgN/A
2:00 AM37 °FPartly cloudy.23 mph93%30.04 "HgN/A
1:30 AM43 °FPassing clouds.13 mph71%30.07 "HgN/A
1:00 AM43 °FPassing clouds.17 mph71%30.04 "HgN/A
Weather by CustomWeather, © 2015

See weather overviewHow to use our weather pages